Terug naar catalogus

SCOUT B DEB

ActiefUNKNOWN
NORAD 28800·DEBRIS·🇺🇸 United States

Gelanceerd Aug 10, 1965 vanaf Wallops Flight Facility

Loading…

Volgende Passages (komende 24 uur)

TLE

VersSource: Space-Track

Epoch: Sep 6, 2026, 23:45 UTC

1 28800U 65063K   26249.98998067 -.00000530  00000-0 -24776-2 0  9995
2 28800  69.2069   3.8363 0751342  61.8519  46.5007 12.05412628962546

Volg SCOUT B DEB in realtime met AllMySat

Download on the App Store